User: anonymous   Login
Location: Unspecified
(0.0000°N, 0.0000°E)
Time: 12:12:07
(UTC+00:00)
Language:

ICESAT-2 - Orbit

View from above orbital plane
View from above orbital plane
View from above satellite
View from above satellite

Ground track
Ground track

The orbit data is extracted from the following two-line orbital elements,

1 43613U 18070A   19047.91878031 +.00001023 +00000-0 +36974-4 0  9990
2 43613 092.0031 290.3565 0003270 082.0210 278.1411 15.28278064023584
Epoch (UTC): 16 February 2019 22:03:02
Eccentricity: 0.0003270
inclination: 92.0031°
perigee height: 479 km
apogee height: 483 km
right ascension of ascending node: 290.3565°
argument of perigee: 82.0210°
revolutions per day: 15.28278064
mean anomaly at epoch: 278.1411°
orbit number at epoch: 2358

The dashed part of the orbit path shows where the satellite is in the earth's shadow,  

DLR